******** Week 360 almanac for PRN-1 ******** ID: 1 Health: 0 Eccentricity: 0.001590251923 Time of Applicability(s): 405504 Orbital Inclination(rad): 0.9582849887 Rate of Right Ascen(r/s): -7.851755628e-09 SQRT(A) (m 1/2): 5153.577148 Right Ascen at Week(rad): 3.135403552 Argument of Perigee(rad): 0.09023634498 Mean Anom(rad): 0.5829280544 Af0(s): 0.0002547419189 Af1(s/s): -7.275958e-12 week: 360 ******** Week 360 almanac for PRN-2 ******** ID: 2 Health: 0 Eccentricity: 0.01689386368 Time of Applicability(s): 405504 Orbital Inclination(rad): 0.9635041187 Rate of Right Ascen(r/s): -7.817468486e-09 SQRT(A) (m 1/2): 5153.544434 Right Ascen at Week(rad): 2.972967495 Argument of Perigee(rad): -0.8104107391 Mean Anom(rad): 2.04937062 Af0(s): 4.069841309e-05 Af1(s/s): 7.275958e-12 week: 360 ******** Week 360 almanac for PRN-3 ******** ID: 3 Health: 0 Eccentricity: 0.006487846374 Time of Applicability(s): 405504 Orbital Inclination(rad): 0.993308886 Rate of Right Ascen(r/s): -7.520313251e-09 SQRT(A) (m 1/2): 5153.583984 Right Ascen at Week(rad): -2.161010042 Argument of Perigee(rad): 1.202096779 Mean Anom(rad): -1.543631086 Af0(s): 0.0004341164062 Af1(s/s): -1.091394e-11 week: 360 ******** Week 360 almanac for PRN-4 ******** ID: 4 Health: 0 Eccentricity: 0.003724098206 Time of Applicability(s): 405504 Orbital Inclination(rad): 0.9704130243 Rate of Right Ascen(r/s): -8.114623721e-09 SQRT(A) (m 1/2): 5153.672363 Right Ascen at Week(rad): -1.090187713 Argument of Perigee(rad): -2.87905012 Mean Anom(rad): 1.437011556 Af0(s): 3.768371582e-05 Af1(s/s): 3.637979e-12 week: 360 ******** Week 360 almanac for PRN-5 ******** ID: 5 Health: 0 Eccentricity: 0.005392551422 Time of Applicability(s): 405504 Orbital Inclination(rad): 0.9798865541 Rate of Right Ascen(r/s): -7.657461821e-09 SQRT(A) (m 1/2): 5153.662109 Right Ascen at Week(rad): -2.220788104 Argument of Perigee(rad): 1.416957454 Mean Anom(rad): 2.101077307 Af0(s): -0.0001816355103 Af1(s/s): 0 week: 360 ******** Week 360 almanac for PRN-6 ******** ID: 6 Health: 0 Eccentricity: 0.003855705261 Time of Applicability(s): 405504 Orbital Inclination(rad): 0.9871489944 Rate of Right Ascen(r/s): -7.588887536e-09 SQRT(A) (m 1/2): 5153.595703 Right Ascen at Week(rad): 3.086033039 Argument of Perigee(rad): -0.5638517899 Mean Anom(rad): -0.2269081909 Af0(s): -0.0004838589111 Af1(s/s): 0 week: 360 ******** Week 360 almanac for PRN-7 ******** ID: 7 Health: 0 Eccentricity: 0.02049970627 Time of Applicability(s): 405504 Orbital Inclination(rad): 0.951370091 Rate of Right Ascen(r/s): -7.874613723e-09 SQRT(A) (m 1/2): 5153.574219 Right Ascen at Week(rad): -0.08151782136 Argument of Perigee(rad): -1.991068115 Mean Anom(rad): -1.089513226 Af0(s): -0.0001236025879 Af1(s/s): -3.637979e-12 week: 360 ******** Week 360 almanac for PRN-8 ******** ID: 8 Health: 0 Eccentricity: 0.01157951355 Time of Applicability(s): 405504 Orbital Inclination(rad): 0.9431608969 Rate of Right Ascen(r/s): -8.468924193e-09 SQRT(A) (m 1/2): 5153.625 Right Ascen at Week(rad): 1.965710618 Argument of Perigee(rad): 0.5243813707 Mean Anom(rad): 1.738200595 Af0(s): 0.0003813592041 Af1(s/s): -7.275958e-12 week: 360 ******** Week 360 almanac for PRN-9 ******** ID: 9 Health: 0 Eccentricity: 0.003354549408 Time of Applicability(s): 405504 Orbital Inclination(rad): 0.9645527384 Rate of Right Ascen(r/s): -8.194627053e-09 SQRT(A) (m 1/2): 5153.715332 Right Ascen at Week(rad): -1.154475215 Argument of Perigee(rad): 2.066526787 Mean Anom(rad): 2.331868387 Af0(s): 0.0006067078247 Af1(s/s): 0 week: 360 ******** Week 360 almanac for PRN-10 ******** ID: 10 Health: 0 Eccentricity: 0.01094198227 Time of Applicability(s): 405504 Orbital Inclination(rad): 0.9928534855 Rate of Right Ascen(r/s): -7.543171346e-09 SQRT(A) (m 1/2): 5153.60791 Right Ascen at Week(rad): -2.163519613 Argument of Perigee(rad): -2.255500786 Mean Anom(rad): -2.534808877 Af0(s): -0.0004665244019 Af1(s/s): 0 week: 360 ******** Week 360 almanac for PRN-11 ******** ID: 11 Health: 0 Eccentricity: 0.002202510834 Time of Applicability(s): 405504 Orbital Inclination(rad): 0.9640134482 Rate of Right Ascen(r/s): -7.794610391e-09 SQRT(A) (m 1/2): 5153.529297 Right Ascen at Week(rad): 3.104754646 Argument of Perigee(rad): -2.301695854 Mean Anom(rad): 0.8604385115 Af0(s): -0.0003301093506 Af1(s/s): 1.455192e-11 week: 360 ******** Week 360 almanac for PRN-12 ******** ID: 12 Health: 0 Eccentricity: 0.009021759033 Time of Applicability(s): 405504 Orbital Inclination(rad): 0.959099916 Rate of Right Ascen(r/s): -7.886042771e-09 SQRT(A) (m 1/2): 5153.725098 Right Ascen at Week(rad): 1.035973701 Argument of Perigee(rad): 1.560252831 Mean Anom(rad): -1.750167218 Af0(s): -0.0004800905395 Af1(s/s): 0 week: 360 ******** Week 360 almanac for PRN-13 ******** ID: 13 Health: 0 Eccentricity: 0.01000928879 Time of Applicability(s): 405504 Orbital Inclination(rad): 0.9760815627 Rate of Right Ascen(r/s): -8.057478483e-09 SQRT(A) (m 1/2): 5153.614258 Right Ascen at Week(rad): -0.9792748347 Argument of Perigee(rad): 0.9963755747 Mean Anom(rad): 1.491222947 Af0(s): 0.0005411381592 Af1(s/s): 0 week: 360 ******** Week 360 almanac for PRN-14 ******** ID: 14 Health: 0 Eccentricity: 0.006727218628 Time of Applicability(s): 405504 Orbital Inclination(rad): 0.9424837882 Rate of Right Ascen(r/s): -8.034620388e-09 SQRT(A) (m 1/2): 5153.603516 Right Ascen at Week(rad): 0.9812791964 Argument of Perigee(rad): -2.749005176 Mean Anom(rad): -1.907266924 Af0(s): 0.0005833439209 Af1(s/s): 3.637979e-12 week: 360 ******** Week 360 almanac for PRN-15 ******** ID: 15 Health: 0 Eccentricity: 0.01661586761 Time of Applicability(s): 405504 Orbital Inclination(rad): 0.942417875 Rate of Right Ascen(r/s): -8.411778956e-09 SQRT(A) (m 1/2): 5153.631348 Right Ascen at Week(rad): -1.298648436 Argument of Perigee(rad): 1.502123723 Mean Anom(rad): 0.7407561769 Af0(s): 0.000309760144 Af1(s/s): 3.637979e-12 week: 360 ******** Week 360 almanac for PRN-16 ******** ID: 16 Health: 0 Eccentricity: 0.01504659653 Time of Applicability(s): 405504 Orbital Inclination(rad): 0.9582130834 Rate of Right Ascen(r/s): -7.943188008e-09 SQRT(A) (m 1/2): 5153.601074 Right Ascen at Week(rad): 1.052947857 Argument of Perigee(rad): 0.9295871147 Mean Anom(rad): 2.76599656 Af0(s): 0.0001740987671 Af1(s/s): 7.275958e-12 week: 360 ******** Week 360 almanac for PRN-17 ******** ID: 17 Health: 0 Eccentricity: 0.0126619339 Time of Applicability(s): 405504 Orbital Inclination(rad): 0.9588662236 Rate of Right Ascen(r/s): -8.286059433e-09 SQRT(A) (m 1/2): 5153.533691 Right Ascen at Week(rad): 2.07049731 Argument of Perigee(rad): -1.12137179 Mean Anom(rad): 1.6691591 Af0(s): -6.255496826e-05 Af1(s/s): -1.091394e-11 week: 360 ******** Week 360 almanac for PRN-18 ******** ID: 18 Health: 0 Eccentricity: 0.005749225616 Time of Applicability(s): 405504 Orbital Inclination(rad): 0.9721087922 Rate of Right Ascen(r/s): -7.748894201e-09 SQRT(A) (m 1/2): 5153.593262 Right Ascen at Week(rad): 3.080961465 Argument of Perigee(rad): -2.865326685 Mean Anom(rad): -0.3155244185 Af0(s): -0.0003233262817 Af1(s/s): 1.091394e-11 week: 360 ******** Week 360 almanac for PRN-19 ******** ID: 19 Health: 0 Eccentricity: 0.01113128662 Time of Applicability(s): 405504 Orbital Inclination(rad): 0.9580632806 Rate of Right Ascen(r/s): -8.308917528e-09 SQRT(A) (m 1/2): 5153.660645 Right Ascen at Week(rad): 2.114402642 Argument of Perigee(rad): 2.932257083 Mean Anom(rad): -2.80095754 Af0(s): 0.0005471675537 Af1(s/s): 0 week: 360 ******** Week 360 almanac for PRN-20 ******** ID: 20 Health: 255 Eccentricity: 0.0003175735474 Time of Applicability(s): 405504 Orbital Inclination(rad): 0.9599687723 Rate of Right Ascen(r/s): -8.251772291e-09 SQRT(A) (m 1/2): 5153.634277 Right Ascen at Week(rad): -1.148879705 Argument of Perigee(rad): 1.079261845 Mean Anom(rad): 1.429878321 Af0(s): 2.637860107e-05 Af1(s/s): 2.546585e-11 week: 360 ******** Week 360 almanac for PRN-21 ******** ID: 21 Health: 0 Eccentricity: 0.0007476806641 Time of Applicability(s): 405504 Orbital Inclination(rad): 0.9627191519 Rate of Right Ascen(r/s): -7.874613723e-09 SQRT(A) (m 1/2): 5153.716797 Right Ascen at Week(rad): -2.154848277 Argument of Perigee(rad): -0.3387959107 Mean Anom(rad): -2.03134335 Af0(s): 0.0003203115845 Af1(s/s): 3.637979e-12 week: 360 ******** Week 360 almanac for PRN-22 ******** ID: 22 Health: 0 Eccentricity: 0.01209354401 Time of Applicability(s): 405504 Orbital Inclination(rad): 0.957661809 Rate of Right Ascen(r/s): -7.943188008e-09 SQRT(A) (m 1/2): 5153.577148 Right Ascen at Week(rad): 1.056298572 Argument of Perigee(rad): -0.9932461939 Mean Anom(rad): 2.316914321 Af0(s): -3.014697266e-05 Af1(s/s): 3.637979e-12 week: 360 ******** Week 360 almanac for PRN-23 ******** ID: 23 Health: 0 Eccentricity: 0.006038188934 Time of Applicability(s): 405504 Orbital Inclination(rad): 0.9878560637 Rate of Right Ascen(r/s): -7.554600394e-09 SQRT(A) (m 1/2): 5153.661621 Right Ascen at Week(rad): -2.19561936 Argument of Perigee(rad): -2.737907409 Mean Anom(rad): -1.452409413 Af0(s): 0.0004898883057 Af1(s/s): 3.637979e-12 week: 360 ******** Week 360 almanac for PRN-24 ******** ID: 24 Health: 0 Eccentricity: 0.01791334152 Time of Applicability(s): 405504 Orbital Inclination(rad): 0.9353411901 Rate of Right Ascen(r/s): -8.080336578e-09 SQRT(A) (m 1/2): 5153.596191 Right Ascen at Week(rad): -0.1900244917 Argument of Perigee(rad): 1.135369739 Mean Anom(rad): -0.1071363491 Af0(s): -7.536743164e-05 Af1(s/s): 1.818989e-11 week: 360 ******** Week 360 almanac for PRN-25 ******** ID: 25 Health: 0 Eccentricity: 0.01293754578 Time of Applicability(s): 405504 Orbital Inclination(rad): 0.9475231548 Rate of Right Ascen(r/s): -7.954617056e-09 SQRT(A) (m 1/2): 5153.675293 Right Ascen at Week(rad): 0.9421038886 Argument of Perigee(rad): 1.1573166 Mean Anom(rad): -1.88397034 Af0(s): 0.0003474438599 Af1(s/s): -3.637979e-12 week: 360 ******** Week 360 almanac for PRN-26 ******** ID: 26 Health: 0 Eccentricity: 0.01101016998 Time of Applicability(s): 405504 Orbital Inclination(rad): 0.9283603791 Rate of Right Ascen(r/s): -8.137481816e-09 SQRT(A) (m 1/2): 5153.66748 Right Ascen at Week(rad): 0.8675129493 Argument of Perigee(rad): 0.7095447612 Mean Anom(rad): -2.704663544 Af0(s): -0.0002652933594 Af1(s/s): -3.637979e-12 week: 360 ******** Week 360 almanac for PRN-27 ******** ID: 27 Health: 0 Eccentricity: 0.01436471939 Time of Applicability(s): 405504 Orbital Inclination(rad): 0.9522689078 Rate of Right Ascen(r/s): -8.377491813e-09 SQRT(A) (m 1/2): 5153.605469 Right Ascen at Week(rad): 1.997778906 Argument of Perigee(rad): 0.8818221138 Mean Anom(rad): 1.83921263 Af0(s): -4.672780762e-05 Af1(s/s): -1.091394e-11 week: 360 ******** Week 360 almanac for PRN-28 ******** ID: 28 Health: 0 Eccentricity: 0.0004234313965 Time of Applicability(s): 405504 Orbital Inclination(rad): 0.9623056962 Rate of Right Ascen(r/s): -7.794610391e-09 SQRT(A) (m 1/2): 5153.750488 Right Ascen at Week(rad): -0.1072198642 Argument of Perigee(rad): -0.00356792846 Mean Anom(rad): -0.7557491913 Af0(s): -0.0004612486816 Af1(s/s): 7.275958e-12 week: 360 ******** Week 360 almanac for PRN-29 ******** ID: 29 Health: 0 Eccentricity: 0.003369808197 Time of Applicability(s): 405504 Orbital Inclination(rad): 0.9615327137 Rate of Right Ascen(r/s): -8.263201338e-09 SQRT(A) (m 1/2): 5153.699219 Right Ascen at Week(rad): 2.087235153 Argument of Perigee(rad): 2.740181042 Mean Anom(rad): 1.70376355 Af0(s): -0.0002879035889 Af1(s/s): 7.275958e-12 week: 360 ******** Week 360 almanac for PRN-30 ******** ID: 30 Health: 0 Eccentricity: 0.008069515228 Time of Applicability(s): 405504 Orbital Inclination(rad): 0.9366294943 Rate of Right Ascen(r/s): -8.046049436e-09 SQRT(A) (m 1/2): 5153.706543 Right Ascen at Week(rad): -0.09055355244 Argument of Perigee(rad): -2.316747666 Mean Anom(rad): -1.261406334 Af0(s): 0.0001122974731 Af1(s/s): 1.455192e-11 week: 360 ******** Week 360 almanac for PRN-31 ******** ID: 31 Health: 0 Eccentricity: 0.01086187363 Time of Applicability(s): 405504 Orbital Inclination(rad): 0.9551391297 Rate of Right Ascen(r/s): -7.817468486e-09 SQRT(A) (m 1/2): 5153.524414 Right Ascen at Week(rad): -0.05729358324 Argument of Perigee(rad): 0.9352406728 Mean Anom(rad): -2.184980364 Af0(s): -0.0001288783081 Af1(s/s): 3.637979e-12 week: 360 ******** Week 360 almanac for PRN-32 ******** ID: 32 Health: 0 Eccentricity: 0.009347438812 Time of Applicability(s): 405504 Orbital Inclination(rad): 0.9676027236 Rate of Right Ascen(r/s): -8.160339911e-09 SQRT(A) (m 1/2): 5153.672852 Right Ascen at Week(rad): -1.137455368 Argument of Perigee(rad): -1.997592776 Mean Anom(rad): 2.414075301 Af0(s): -4.974250488e-05 Af1(s/s): 1.818989e-11 week: 360